DW5775 Weather Reports


time (UTC)temp
C
wind
direction
speed
KPH
gust
KPH
rain 1hr
cm
rain 24hr
cm
rain mn
cm
humidity
%
barometer
mb
20260502140111 6 330 4.8 11.3 0.00 0.00 0.00 60 1017.4
20260502123041 5 201 1.6 4.8 0.00 0.00 0.00 80 1017.6
20260502121540 4 273 0.0 3.2 0.00 0.00 0.00 77 1017.6
20260502114533 4 22 0.0 1.6 0.00 0.00 0.00 88 1017.4
20260502113036 1 22 0.0 0.0 0.00 0.00 0.00 93 1017.3
20260502111528 0 22 0.0 0.0 0.00 0.00 0.00 92 1017.2
20260502110034 0 22 0.0 0.0 0.00 0.00 0.00 91 1017.1
20260502104524 0 22 0.0 0.0 0.00 0.00 0.00 90 1017.0
20260502103022 1 22 0.0 0.0 0.00 0.00 0.00 90 1017.0
20260502101524 1 22 0.0 1.6 0.00 0.00 0.00 90 1017.1
20260502091516 1 22 0.0 0.0 0.00 0.00 0.00 89 1016.8
20260502071505 2 22 0.0 0.0 0.00 0.00 0.00 84 1016.5
20260502070010 2 22 0.0 1.6 0.00 0.00 0.00 83 1016.5
20260502064502 2 23 0.0 1.6 0.00 0.00 0.00 83 1016.7
20260502063102 2 67 0.0 1.6 0.00 0.00 0.00 82 1016.8
20260502063002 2 67 0.0 1.6 0.00 0.00 0.00 81 1016.8
20260502061559 2 53 0.0 0.0 0.00 0.00 0.00 81 1016.9
20260502060059 2 53 0.0 1.6 0.00 0.00 0.00 80 1016.9
20260502054603 2 53 0.0 1.6 0.00 0.00 0.00 80 1017.0
20260502053056 2 198 0.0 1.6 0.00 0.00 0.00 80 1016.9
20260502051555 2 194 0.0 1.6 0.00 0.00 0.00 80 1016.9
20260502050053 2 205 0.0 1.6 0.00 0.00 0.00 80 1016.8
20260502044555 2 89 0.0 3.2 0.00 0.00 0.00 78 1016.6
20260502043050 3 203 0.0 3.2 0.00 0.00 0.00 79 1016.5
20260502041557 3 172 0.0 3.2 0.00 0.00 0.00 79 1016.4
20260502040045 3 33 0.0 4.8 0.00 0.00 0.00 78 1016.3
20260502034544 3 308 1.6 8.0 0.00 0.00 0.00 76 1016.3
20260502033041 3 79 0.0 4.8 0.00 0.00 0.00 75 1016.4
20260502031538 3 74 0.0 6.4 0.00 0.00 0.00 75 1016.2
20260502030038 4 77 1.6 8.0 0.00 0.00 0.00 73 1016.1
20260502024534 5 22 3.2 6.4 0.00 0.00 0.00 74 1016.1
20260502023039 5 16 0.0 4.8 0.00 0.00 0.00 71 1015.7
20260502021529 6 316 0.0 4.8 0.00 0.00 0.00 63 1015.5
20260502020029 6 319 0.0 3.2 0.00 0.00 0.00 65 1015.4
20260502014527 6 347 0.0 3.2 0.00 0.00 0.00 65 1015.2
20260502013026 6 355 0.0 1.6 0.00 0.00 0.00 64 1015.1
20260502011524 6 76 0.0 3.2 0.00 0.00 0.00 65 1015.1
20260502010023 6 340 0.0 4.8 0.00 0.00 0.00 64 1014.9
20260502004522 6 286 0.0 3.2 0.00 0.00 0.00 65 1014.8
20260502003021 6 311 0.0 4.8 0.00 0.00 0.00 64 1014.7
20260502001521 6 283 0.0 6.4 0.00 0.00 0.00 64 1014.7
20260502000018 6 321 0.0 4.8 0.00 0.00 0.00 65 1014.5
20260501234517 7 58 1.6 4.8 0.00 0.00 0.00 66 1014.4
20260501233017 7 297 1.6 4.8 0.00 0.00 0.00 64 1014.3
20260501231516 7 283 1.6 6.4 0.00 0.00 0.00 65 1014.3
20260501230015 7 159 0.0 3.2 0.00 0.00 0.00 64 1014.4
20260501224515 7 328 0.0 8.0 0.00 0.00 0.00 64 1014.3
20260501223013 7 221 0.0 4.8 0.00 0.00 0.00 64 1014.2
20260501221513 8 298 0.0 6.4 0.00 0.00 0.00 57 1013.9
20260501220022 8 174 0.0 8.0 0.00 0.00 0.00 57 1013.8
20260501214515 8 304 0.0 6.4 0.00 0.00 0.00 57 1013.7
20260501213008 8 46 1.6 8.0 0.00 0.00 0.00 56 1013.6
20260501211516 8 232 0.0 3.2 0.00 0.00 0.00 58 1013.4
20260501210007 8 71 0.0 8.0 0.00 0.00 0.00 56 1013.3
20260501204507 8 300 4.8 8.0 0.00 0.00 0.00 55 1013.4
20260501203006 8 8 1.6 4.8 0.00 0.00 0.00 57 1013.3
20260501201506 9 329 3.2 8.0 0.00 0.00 0.00 54 1013.3
20260501200006 10 159 1.6 6.4 0.00 0.00 0.00 53 1013.2
20260501194504 10 295 1.6 4.8 0.00 0.00 0.00 54 1013.3
20260501193002 9 287 1.6 9.7 0.00 0.00 0.00 54 1013.2
20260501191600 9 304 3.2 11.3 0.00 0.00 0.00 54 1013.1
20260501190058 9 321 4.8 12.9 0.00 0.00 0.00 54 1012.9
20260501184558 8 110 1.6 11.3 0.00 0.00 0.00 57 1013.0
20260501183103 8 20 4.8 9.7 0.00 0.00 0.00 58 1012.9
20260501181606 8 120 3.2 11.3 0.00 0.00 0.00 57 1012.9
20260501180056 9 290 0.0 4.8 0.00 0.00 0.00 54 1012.6
20260501174556 8 28 1.6 6.4 0.00 0.00 0.00 56 1012.6
20260501173122 8 262 3.2 8.0 0.00 0.00 0.00 57 1012.8
20260501171553 8 324 0.0 6.4 0.00 0.00 0.00 57 1012.8
20260501164611 8 264 0.0 4.8 0.00 0.00 0.00 62 1012.7
20260501163051 8 61 1.6 4.8 0.00 0.00 0.00 63 1012.9
20260501161557 8 278 1.6 8.0 0.00 0.00 0.00 60 1012.8
20260501160047 8 287 3.2 4.8 0.00 0.00 0.00 67 1012.8
20260501154551 7 37 1.6 6.4 0.00 0.00 0.00 69 1013.0
20260501153040 7 233 0.0 8.0 0.00 0.00 0.00 75 1013.2
20260501151536 7 74 1.6 4.8 0.00 0.00 0.00 79 1013.1
20260501150041 6 49 1.6 4.8 0.00 0.00 0.00 79 1013.2
20260501144541 6 300 1.6 4.8 0.00 0.00 0.00 83 1013.4
20260501143034 5 314 0.0 6.4 0.00 0.00 0.00 86 1013.3